GW5216 Weather Reports


time (UTC)temp
C
wind
direction
speed
KPH
gust
KPH
rain 1hr
cm
rain 24hr
cm
rain mn
cm
humidity
%
barometer
mb
20260506033836 12 190 0.0 0.0 0.00 0.00 0.00 62 1015.8
20260506033334 12 180 4.8 9.7 0.00 0.00 0.00 61 1015.9
20260506032830 12 158 3.2 8.0 0.00 0.00 0.00 61 1015.9
20260506032327 12 185 1.6 3.2 0.00 0.00 0.00 60 1015.7
20260506031824 12 157 0.0 0.0 0.00 0.00 0.00 61 1015.8
20260506031322 12 232 0.0 4.8 0.00 0.00 0.00 59 1015.8
20260506030819 13 357 1.6 4.8 0.00 0.00 0.00 58 1015.7
20260506030317 13 219 0.0 3.2 0.00 0.00 0.00 58 1015.6
20260506025813 13 182 1.6 4.8 0.00 0.00 0.00 56 1015.6
20260506025310 13 189 0.0 1.6 0.00 0.00 0.00 57 1015.6
20260506024807 13 220 1.6 6.4 0.00 0.00 0.00 56 1015.4
20260506024303 13 230 0.0 3.2 0.00 0.00 0.00 57 1015.4
20260506023800 13 163 0.0 3.2 0.00 0.00 0.00 56 1015.4
20260506023257 13 165 1.6 6.4 0.00 0.00 0.00 55 1015.3
20260506022753 13 209 1.6 8.0 0.00 0.00 0.00 54 1015.2
20260506022251 14 246 1.6 4.8 0.00 0.00 0.00 54 1015.2
20260506021749 14 177 3.2 6.4 0.00 0.00 0.00 53 1015.1
20260506021246 14 190 3.2 9.7 0.00 0.00 0.00 53 1015.1
20260506020742 15 171 1.6 4.8 0.00 0.00 0.00 53 1014.9
20260506020241 15 168 1.6 4.8 0.00 0.00 0.00 53 1014.9
20260506015738 15 187 3.2 9.7 0.00 0.00 0.00 53 1014.9
20260506015235 15 165 3.2 8.0 0.00 0.00 0.00 52 1014.9
20260506014732 15 142 1.6 4.8 0.00 0.00 0.00 51 1014.9
20260506014228 15 202 3.2 8.0 0.00 0.00 0.00 50 1014.9
20260506013726 15 201 3.2 4.8 0.00 0.00 0.00 48 1014.8
20260506013223 16 188 3.2 9.7 0.00 0.00 0.00 48 1014.8
20260506012719 16 129 3.2 4.8 0.00 0.00 0.00 48 1014.8
20260506012216 16 348 3.2 6.4 0.00 0.00 0.00 48 1014.7
20260506011713 16 172 0.0 1.6 0.00 0.00 0.00 47 1014.5
20260506011209 16 178 0.0 4.8 0.00 0.00 0.00 47 1014.4
20260506010708 16 193 4.8 11.3 0.00 0.00 0.00 47 1014.5
20260506010205 16 141 1.6 4.8 0.00 0.00 0.00 47 1014.5
20260506005702 16 203 1.6 6.4 0.00 0.00 0.00 46 1014.5
20260506005159 16 169 3.2 8.0 0.00 0.00 0.00 45 1014.6
20260506004655 16 163 4.8 6.4 0.00 0.00 0.00 44 1014.6
20260506004152 17 218 1.6 3.2 0.00 0.00 0.00 44 1014.7
20260506003648 17 79 3.2 8.0 0.00 0.00 0.00 44 1014.6
20260506003145 17 192 3.2 8.0 0.00 0.00 0.00 44 1014.5
20260506002641 17 203 4.8 9.7 0.00 0.00 0.00 44 1014.5
20260506002137 17 199 1.6 6.4 0.00 0.00 0.00 43 1014.5
20260506001633 17 187 6.4 12.9 0.00 0.00 0.00 43 1014.5
20260506001131 17 181 4.8 12.9 0.00 0.00 0.00 44 1014.5
20260506000628 17 217 3.2 8.0 0.00 0.00 0.00 44 1014.4
20260506000125 17 202 1.6 3.2 0.00 0.00 0.00 42 1014.3
20260505235623 17 225 1.6 3.2 0.00 0.00 0.00 43 1014.2
20260505235120 17 213 6.4 11.3 0.00 0.00 0.00 43 1014.2
20260505234617 18 232 1.6 6.4 0.00 0.00 0.00 43 1014.1
20260505234113 18 171 0.0 3.2 0.00 0.00 0.00 45 1013.9
20260505233611 18 219 0.0 0.0 0.00 0.00 0.00 45 1013.9
20260505233108 18 139 3.2 4.8 0.00 0.00 0.00 45 1013.9
20260505232606 18 145 3.2 6.4 0.00 0.00 0.00 45 1014.0
20260505232103 18 202 1.6 3.2 0.00 0.00 0.00 47 1014.0
20260505231600 18 205 1.6 8.0 0.00 0.00 0.00 47 1014.2
20260505231059 18 208 1.6 4.8 0.00 0.00 0.00 47 1014.0
20260505230556 18 206 1.6 4.8 0.00 0.00 0.00 47 1014.0
20260505230052 17 184 3.2 11.3 0.00 0.00 0.00 49 1014.0
20260505225549 17 266 0.0 3.2 0.00 0.00 0.00 50 1013.9
20260505225045 17 188 3.2 6.4 0.00 0.00 0.00 49 1013.8
20260505224542 17 299 3.2 6.4 0.00 0.00 0.00 49 1013.8
20260505224039 17 299 3.2 8.0 0.00 0.00 0.00 48 1013.7
20260505223536 18 121 3.2 6.4 0.00 0.00 0.00 45 1013.6
20260505223032 18 263 1.6 6.4 0.00 0.00 0.00 45 1013.6
20260505222529 19 284 3.2 12.9 0.00 0.00 0.00 44 1013.6
20260505222025 20 177 1.6 3.2 0.00 0.00 0.00 43 1013.5
20260505221522 20 185 3.2 4.8 0.00 0.00 0.00 42 1013.5
20260505221019 20 185 1.6 4.8 0.00 0.00 0.00 41 1013.4
20260505220516 21 155 3.2 6.4 0.00 0.00 0.00 40 1013.4
20260505220014 21 256 3.2 9.7 0.00 0.00 0.00 41 1013.4
20260505215512 21 213 1.6 4.8 0.00 0.00 0.00 42 1013.3
20260505215009 20 195 1.6 4.8 0.00 0.00 0.00 44 1013.5
20260505214508 20 201 1.6 4.8 0.00 0.00 0.00 43 1013.4
20260505214004 20 109 1.6 4.8 0.00 0.00 0.00 44 1013.5
20260505213502 20 251 0.0 3.2 0.00 0.00 0.00 45 1013.3
20260505212958 20 206 1.6 4.8 0.00 0.00 0.00 45 1013.3
20260505212454 20 200 0.0 1.6 0.00 0.00 0.00 44 1013.3
20260505211951 20 217 0.0 0.0 0.00 0.00 0.00 44 1013.1
20260505211449 20 200 3.2 6.4 0.00 0.00 0.00 44 1013.1
20260505210945 20 192 3.2 6.4 0.00 0.00 0.00 46 1013.2
20260505210442 20 209 1.6 3.2 0.00 0.00 0.00 45 1013.1
20260505205938 20 349 0.0 3.2 0.00 0.00 0.00 45 1013.0
20260505205437 20 170 4.8 8.0 0.00 0.00 0.00 45 1012.9
20260505204933 20 199 1.6 4.8 0.00 0.00 0.00 47 1013.0
20260505204432 20 297 0.0 3.2 0.00 0.00 0.00 50 1013.0
20260505203929 20 157 0.0 3.2 0.00 0.00 0.00 49 1012.9
20260505203425 20 226 1.6 3.2 0.00 0.00 0.00 47 1012.6
20260505202921 20 49 1.6 4.8 0.00 0.00 0.00 49 1012.7
20260505202417 19 180 1.6 6.4 0.00 0.00 0.00 51 1012.7
20260505201914 18 159 0.0 4.8 0.00 0.00 0.00 51 1012.6
20260505201411 18 165 1.6 6.4 0.00 0.00 0.00 53 1012.5
20260505200910 18 214 1.6 4.8 0.00 0.00 0.00 53 1012.4
20260505200406 18 192 3.2 14.5 0.00 0.00 0.00 56 1012.5
20260505195901 17 176 1.6 4.8 0.00 0.00 0.00 59 1012.5
20260505195359 16 145 0.0 6.4 0.00 0.00 0.00 62 1012.4
20260505194856 16 66 0.0 3.2 0.00 0.00 0.00 64 1012.4
20260505194354 16 281 0.0 0.0 0.00 0.00 0.00 62 1012.4
20260505193854 16 282 1.6 8.0 0.00 0.00 0.00 62 1012.5
20260505193352 16 214 1.6 4.8 0.00 0.00 0.00 64 1012.4
20260505192849 16 247 0.0 1.6 0.00 0.00 0.00 65 1012.2
20260505192348 15 251 1.6 4.8 0.00 0.00 0.00 69 1012.2
20260505191845 16 310 1.6 4.8 0.00 0.00 0.00 69 1012.1
20260505191343 16 315 0.0 3.2 0.00 0.00 0.00 67 1012.1
20260505190840 16 301 1.6 4.8 0.00 0.00 0.00 68 1012.2
20260505190335 16 292 1.6 3.2 0.00 0.00 0.00 70 1012.2
20260505185831 16 292 1.6 3.2 0.00 0.00 0.00 68 1012.1
20260505185328 16 325 0.0 1.6 0.00 0.00 0.00 66 1012.0
20260505184824 16 258 0.0 1.6 0.00 0.00 0.00 68 1012.0
20260505184321 15 337 0.0 0.0 0.00 0.00 0.00 71 1011.9
20260505183818 15 45 0.0 0.0 0.00 0.00 0.00 73 1012.0
20260505183315 15 292 0.0 0.0 0.00 0.00 0.00 74 1012.0
20260505182812 14 307 0.0 3.2 0.00 0.00 0.00 72 1012.2
20260505182308 14 315 1.6 3.2 0.00 0.00 0.00 72 1012.1
20260505181805 14 202 0.0 0.0 0.00 0.00 0.00 75 1011.9
20260505181303 13 3 0.0 0.0 0.00 0.00 0.00 75 1011.8
20260505180759 13 18 1.6 8.0 0.00 0.00 0.00 76 1011.8
20260505180255 13 271 0.0 3.2 0.00 0.00 0.00 78 1011.7
20260505175752 13 337 0.0 3.2 0.00 0.00 0.00 80 1011.6
20260505175248 12 214 0.0 0.0 0.00 0.00 0.00 80 1011.7
20260505174745 12 310 0.0 0.0 0.00 0.00 0.00 80 1011.7
20260505174242 12 270 0.0 0.0 0.00 0.00 0.00 80 1011.7
20260505173738 12 288 0.0 0.0 0.00 0.00 0.00 81 1011.6
20260505173235 12 279 1.6 3.2 0.00 0.00 0.00 81 1011.9
20260505172732 12 270 0.0 0.0 0.00 0.00 0.00 81 1011.5
20260505172229 12 308 0.0 1.6 0.00 0.00 0.00 84 1011.6
20260505171729 11 292 0.0 0.0 0.00 0.00 0.00 84 1011.6
20260505171226 11 292 0.0 0.0 0.00 0.00 0.00 84 1011.6
20260505170723 11 278 0.0 0.0 0.00 0.00 0.00 84 1011.7
20260505170220 11 289 0.0 3.2 0.00 0.00 0.00 85 1011.5
20260505165715 11 315 0.0 1.6 0.00 0.00 0.00 86 1011.4
20260505165211 10 315 1.6 4.8 0.00 0.00 0.00 89 1011.5
20260505164707 10 315 1.6 3.2 0.00 0.00 0.00 90 1011.3
20260505164204 10 309 1.6 4.8 0.00 0.00 0.00 90 1011.2
20260505163702 9 293 1.6 3.2 0.00 0.00 0.00 91 1011.2
20260505163201 9 315 0.0 1.6 0.00 0.00 0.00 91 1011.1
20260505162658 9 315 0.0 0.0 0.00 0.00 0.00 92 1011.0
20260505162155 9 315 0.0 0.0 0.00 0.00 0.00 90 1011.0
20260505161651 9 315 0.0 0.0 0.00 0.00 0.00 90 1010.8
20260505161149 9 292 0.0 0.0 0.00 0.00 0.00 91 1010.8
20260505160647 9 292 0.0 0.0 0.00 0.00 0.00 92 1010.7
20260505160144 9 328 0.0 0.0 0.00 0.00 0.00 92 1010.6
20260505153123 8 292 0.0 0.0 0.00 0.00 0.00 95 1010.4
20260505152620 8 292 0.0 0.0 0.00 0.00 0.00 96 1010.2
20260505152115 7 292 0.0 0.0 0.00 0.00 0.00 97 1010.2
20260505151611 7 292 0.0 0.0 0.00 0.00 0.00 98 1010.0
20260505151109 7 337 0.0 0.0 0.00 0.00 0.00 99 1010.0
20260505150605 7 337 0.0 0.0 0.00 0.00 0.00 98 1009.9
20260505140530 6 337 0.0 0.0 0.00 0.00 0.00 99 1010.0
20260505124943 5 337 0.0 0.0 0.00 0.00 0.00 98 1009.4
20260505124440 5 337 0.0 0.0 0.00 0.00 0.00 99 1009.6
20260505123936 5 337 0.0 0.0 0.00 0.00 0.00 99 1009.4
20260505123433 5 337 0.0 0.0 0.00 0.00 0.00 98 1009.3
20260505122929 5 337 0.0 0.0 0.00 0.00 0.00 98 1009.0
20260505122427 5 337 0.0 0.0 0.00 0.00 0.00 98 1009.2
20260505121923 5 337 0.0 0.0 0.00 0.00 0.00 98 1009.1
20260505121420 5 337 0.0 0.0 0.00 0.00 0.00 98 1009.3
20260505120916 5 337 0.0 0.0 0.00 0.00 0.00 99 1009.3
20260505120413 5 337 0.0 0.0 0.00 0.00 0.00 98 1009.3
20260505115912 5 337 0.0 0.0 0.00 0.00 0.00 97 1009.2
20260505115408 5 337 0.0 0.0 0.00 0.00 0.00 98 1009.2
20260505114906 6 337 0.0 0.0 0.00 0.00 0.00 97 1009.1
20260505114402 6 337 0.0 0.0 0.00 0.00 0.00 97 1009.2
20260505113859 6 337 0.0 0.0 0.00 0.00 0.00 97 1009.2
20260505113356 6 337 0.0 0.0 0.00 0.00 0.00 98 1009.4
20260505112851 6 337 0.0 0.0 0.00 0.00 0.00 99 1009.3
20260505112349 6 337 0.0 0.0 0.00 0.00 0.00 98 1009.4
20260505111845 6 337 0.0 0.0 0.00 0.00 0.00 98 1009.5
20260505111340 6 337 0.0 0.0 0.00 0.00 0.00 98 1009.4
20260505110836 6 337 0.0 0.0 0.00 0.00 0.00 96 1009.4
20260505110334 6 337 0.0 0.0 0.00 0.00 0.00 96 1009.6
20260505101809 6 337 0.0 0.0 0.00 0.00 0.00 96 1009.8
20260505101304 6 337 0.0 0.0 0.00 0.00 0.00 95 1009.7
20260505100800 6 337 0.0 0.0 0.00 0.00 0.00 93 1009.8
20260505100257 6 337 0.0 0.0 0.00 0.00 0.00 92 1009.9
20260505095753 7 337 0.0 0.0 0.00 0.00 0.00 91 1009.8
20260505095251 7 337 0.0 0.0 0.00 0.00 0.00 92 1010.0
20260505094746 7 337 0.0 0.0 0.00 0.00 0.00 92 1009.8
20260505094243 7 337 0.0 0.0 0.00 0.00 0.00 92 1010.0
20260505093739 7 337 0.0 0.0 0.00 0.00 0.00 92 1009.9
20260505093237 7 337 0.0 0.0 0.00 0.00 0.00 93 1009.9
20260505092733 7 337 0.0 0.0 0.00 0.00 0.00 94 1009.9
20260505092232 7 337 0.0 0.0 0.00 0.00 0.00 93 1010.1
20260505091729 7 337 0.0 0.0 0.00 0.00 0.00 93 1009.9
20260505091227 7 337 0.0 0.0 0.00 0.00 0.00 92 1010.1
20260505090724 7 337 0.0 0.0 0.00 0.00 0.00 93 1010.1
20260505090223 7 337 0.0 0.0 0.00 0.00 0.00 92 1010.1
20260505085719 7 337 0.0 0.0 0.00 0.00 0.00 91 1010.1
20260505085218 7 337 0.0 0.0 0.00 0.00 0.00 91 1010.3
20260505084714 8 337 0.0 0.0 0.00 0.00 0.00 92 1010.2
20260505084214 7 337 0.0 0.0 0.00 0.00 0.00 91 1010.2
20260505083710 7 337 0.0 0.0 0.00 0.00 0.00 91 1010.2
20260505083207 7 337 0.0 0.0 0.00 0.00 0.00 92 1010.3
20260505082702 7 337 0.0 0.0 0.00 0.00 0.00 90 1010.2
20260505082200 7 337 0.0 0.0 0.00 0.00 0.00 90 1010.2
20260505081655 7 337 0.0 0.0 0.00 0.00 0.00 88 1010.1
20260505081153 8 337 0.0 0.0 0.00 0.00 0.00 88 1010.1
20260505080650 8 337 0.0 0.0 0.00 0.00 0.00 87 1010.1
20260505080146 8 337 0.0 0.0 0.00 0.00 0.00 88 1010.2
20260505075642 8 337 0.0 0.0 0.00 0.00 0.00 89 1010.2
20260505075139 8 337 0.0 0.0 0.00 0.00 0.00 89 1010.3
20260505074636 8 337 0.0 0.0 0.00 0.00 0.00 91 1010.2
20260505074133 8 337 0.0 0.0 0.00 0.00 0.00 91 1010.3
20260505073631 8 337 0.0 0.0 0.00 0.00 0.00 90 1010.4
20260505073129 8 337 0.0 0.0 0.00 0.00 0.00 89 1010.4
20260505072624 8 45 0.0 0.0 0.00 0.00 0.00 91 1010.4
20260505072121 8 45 0.0 0.0 0.00 0.00 0.00 91 1010.3
20260505071617 8 45 0.0 0.0 0.00 0.00 0.00 91 1010.3
20260505071115 8 45 0.0 0.0 0.00 0.00 0.00 90 1010.3
20260505070612 8 45 0.0 0.0 0.00 0.00 0.00 89 1010.5
20260505070108 8 45 0.0 0.0 0.00 0.00 0.00 86 1010.3
20260505065604 8 45 0.0 0.0 0.00 0.00 0.00 85 1010.4
20260505065100 8 45 0.0 0.0 0.00 0.00 0.00 84 1010.5
20260505064557 8 45 0.0 0.0 0.00 0.00 0.00 86 1010.5
20260505064056 8 270 0.0 0.0 0.00 0.00 0.00 88 1010.5
20260505063553 8 270 0.0 0.0 0.00 0.00 0.00 88 1010.5
20260505063048 8 270 0.0 0.0 0.00 0.00 0.00 87 1010.6
20260505062545 8 270 0.0 0.0 0.00 0.00 0.00 87 1010.8
20260505062042 9 337 0.0 0.0 0.00 0.00 0.00 88 1010.8
20260505061540 9 337 0.0 0.0 0.00 0.00 0.00 88 1010.7
20260505061038 9 337 0.0 0.0 0.00 0.00 0.00 88 1010.7
20260505060535 9 337 0.0 0.0 0.00 0.00 0.00 87 1010.6
20260505060031 8 337 0.0 0.0 0.00 0.00 0.00 88 1010.8
20260505055527 8 22 0.0 0.0 0.00 0.00 0.00 90 1010.8
20260505055024 8 315 0.0 0.0 0.00 0.00 0.00 89 1010.8
20260505054521 8 337 0.0 0.0 0.00 0.00 0.00 88 1010.8
20260505054019 8 337 0.0 0.0 0.00 0.00 0.00 89 1010.8
20260505053516 8 337 0.0 0.0 0.00 0.00 0.00 88 1010.9
20260505053013 8 337 0.0 0.0 0.00 0.00 0.00 88 1010.9
20260505052510 9 337 0.0 0.0 0.00 0.00 0.00 88 1011.0
20260505052007 9 337 0.0 0.0 0.00 0.00 0.00 89 1011.1
20260505051504 9 337 0.0 0.0 0.00 0.00 0.00 89 1011.1
20260505051002 9 337 0.0 0.0 0.00 0.00 0.00 88 1011.2
20260505050500 9 337 0.0 0.0 0.00 0.00 0.00 85 1011.1
20260505041427 12 337 0.0 0.0 0.00 0.00 0.00 72 1011.4
20260505040925 13 292 0.0 0.0 0.00 0.00 0.00 73 1011.5
20260505040422 13 292 0.0 0.0 0.00 0.00 0.00 71 1011.6
20260505035919 13 292 0.0 0.0 0.00 0.00 0.00 69 1011.6
20260505035415 14 315 0.0 0.0 0.00 0.00 0.00 66 1011.6
20260505034912 14 315 0.0 0.0 0.00 0.00 0.00 63 1011.7
20260505034408 15 292 0.0 1.6 0.00 0.00 0.00 62 1011.7